Location: Deer Lodge Site
(39.6809°N, 119.9392°W)
Time: 19:22:51
(UTC-07:00)

Amateur Radio Satellites - All Passes

Search period start: 26 May 2017 18:52
Search period end: 27 May 2017 18:52
Location: Deer Lodge Site, 39.6809°N, 119.9392°W

Satellite Date Start Highest point End Downlink Frequencies (MHz)
Time Altitude Azimuth
XW-2D 26 May 19:07:00 19:10:09 25° 264° (W) 19:13:21 145.860 - 145.880
CUBEBUG 2 26 May 19:12:07 19:15:08 20° 67° (ENE) 19:18:13 437.445
XW-2B 26 May 19:15:14 19:18:09 21° 266° (W) 19:21:05 145.730 - 145.750
STARS 26 May 19:16:17 19:19:54 25° 292° (WNW) 19:23:30 437.465
SEEDS 26 May 19:21:15 19:25:05 34° 71° (ENE) 19:28:56 437.485
UWE-3 26 May 19:22:44 19:25:16 16° 65° (ENE) 19:27:51 435.000/436.395/437.385
NUDT-PHONESAT 26 May 19:26:38 19:29:19 19° 266° (W) 19:32:01 437.300
XW-2F 26 May 19:28:29 19:30:45 15° 267° (W) 19:33:02 145.980 - 146.000
XW-2C 26 May 19:29:52 19:31:56 14° 268° (W) 19:34:02 145.795 - 145.815
KAITUO 1B 26 May 19:35:54 19:38:06 15° 267° (W) 19:40:20 145.475/437.950
CUTE-I 26 May 19:41:37 19:45:34 21° 267° (W) 19:49:32 437.470
Tancredo 1 26 May 19:52:40 19:55:28 32° 135° (SE) 19:58:16 437.200
XW-2A 26 May 19:53:34 19:56:52 61° 259° (W) 20:00:13 145.665 - 145.685
Oscar 11 26 May 19:54:49 19:57:21 15° 65° (ENE) 19:59:53 .
STRAND 1 26 May 20:03:42 20:08:39 45° 99° (E) 20:13:34 437.568
CUTE 1.7 + AOD 2 26 May 20:07:37 20:11:42 43° 262° (W) 20:15:49 437.475
PCSat 26 May 20:18:33 20:23:42 44° 304° (NW) 20:28:54 145.827
HO-68 26 May 20:18:39 20:25:29 47° 260° (W) 20:32:24 435.675
AAUSAT CUBESAT 2 26 May 20:20:04 20:24:14 76° 76° (ENE) 20:28:26 437.432
AO-73 26 May 20:20:06 20:23:54 34° 71° (ENE) 20:27:49 145.935
ISS 26 May 20:25:14 20:28:23 45° 137° (SE) 20:31:34 437.550
ZACube-1 26 May 20:33:52 20:37:58 55° 74° (ENE) 20:42:11 437.345
DELFI C3 26 May 20:40:20 20:41:46 12° 65° (ENE) 20:43:15 145.870
CUBEBUG 2 26 May 20:47:49 20:51:32 32° 264° (W) 20:55:20 437.445
UWE-3 26 May 20:57:23 21:01:21 42° 262° (W) 21:05:25 435.000/436.395/437.385
SEEDS 26 May 20:57:46 21:00:50 19° 267° (W) 21:03:54 437.485
M-CUBED/EXP-1 PRIME 26 May 21:23:30 21:26:35 37° 104° (ESE) 21:29:38 437.505
Tancredo 1 26 May 21:28:34 21:31:14 26° 332° (NNW) 21:33:55 437.200
Oscar 11 26 May 21:28:53 21:33:04 47° 261° (W) 21:37:17 .
FO-29 26 May 21:33:17 21:36:55 15° 91° (E) 21:40:43 435.910
STRAND 1 26 May 21:43:38 21:47:29 22° 295° (WNW) 21:51:20 437.568
SO-50 26 May 21:45:12 21:48:45 22° 112° (ESE) 21:52:15 436.795
AO-73 26 May 21:57:15 22:00:14 19° 267° (W) 22:03:17 145.935
ISS 26 May 22:02:15 22:05:01 24° 335° (NNW) 22:07:47 437.550
EO-88 26 May 22:11:50 22:15:29 76° 260° (W) 22:19:10 145.990 - 145.960
DELFI C3 26 May 22:12:10 22:16:04 53° 260° (W) 22:20:00 145.870
ZACube-1 26 May 22:13:05 22:14:36 12° 270° (W) 22:16:07 437.345
TIGRISAT 26 May 22:21:13 22:25:05 26° 95° (E) 22:29:00 435.000
UNISAT 6 26 May 22:52:30 22:57:05 62° 101° (E) 23:01:42 437.425
LO-87 26 May 22:54:24 22:57:45 40° 74° (ENE) 23:01:06 145.935 - 145.965
PRISM 26 May 22:55:14 22:59:19 83° 104° (ESE) 23:03:21 437.425
M-CUBED/EXP-1 PRIME 26 May 22:59:51 23:00:42 11° 300° (WNW) 23:01:33 437.505
Tancredo 1 26 May 23:07:31 23:07:48 10° 351° (N) 23:08:06 437.200
FO-29 26 May 23:15:55 23:22:26 89° 280° (W) 23:29:47 435.910
ESTCUBE 1 26 May 23:22:13 23:26:38 54° 73° (ENE) 23:31:04 437.505/2401.250
SO-50 26 May 23:24:39 23:28:58 39° 308° (NW) 23:33:15 436.795
ISS 26 May 23:41:30 23:42:26 11° 354° (N) 23:43:23 437.550
YUBILEINY 26 May 23:47:37 23:51:55 15° 76° (ENE) 23:56:12 435.215
TIGRISAT 26 May 23:57:43 00:01:43 30° 290° (WNW) 00:05:46 435.000
NANOSAT C BR1 27 May 00:03:21 00:06:32 20° 94° (E) 00:09:42 145.865
50 SAT 27 May 00:06:52 00:09:09 17° 68° (ENE) 00:11:26 437.505
POLYITAN 1 27 May 00:07:55 00:11:29 25° 96° (E) 00:15:02 437.675
SPROUT 27 May 00:08:31 00:12:30 42° 72° (ENE) 00:16:31 437.525
DUCHIFAT 1 27 May 00:13:40 00:17:06 23° 95° (E) 00:20:31 145.980
AIST 2D 27 May 00:16:05 00:19:40 72° 100° (E) 00:23:12 435.315
QB50P2 27 May 00:16:20 00:20:15 34° 97° (E) 00:24:09 145.880/145.840
VELOX 1 27 May 00:16:39 00:20:56 53° 73° (ENE) 00:25:14 145.980
LO-87 27 May 00:30:31 00:31:23 11° 268° (W) 00:32:15 145.935 - 145.965
UNISAT 6 27 May 00:30:56 00:33:16 14° 296° (WNW) 00:35:36 437.425
BUGSAT 1 27 May 00:32:31 00:33:26 11° 91° (E) 00:34:23 437.445
UKube-1 27 May 00:43:22 00:46:53 25° 68° (ENE) 00:50:25 .
Tancredo 1 27 May 00:43:41 00:44:42 11° 12° (NNE) 00:45:42 437.200
DX 1 27 May 00:51:08 00:55:16 45° 72° (ENE) 00:59:25 434.975-435.025
EO-79 27 May 00:53:05 00:57:22 85° 103° (ESE) 01:01:38 145.935-145.965
RS-15 27 May 01:00:48 01:10:32 30° 102° (ESE) 01:20:27 29.354- 29.394
ESTCUBE 1 27 May 01:01:26 01:03:43 14° 269° (W) 01:06:03 437.505/2401.250
FO-29 27 May 01:03:05 01:06:48 16° 299° (WNW) 01:10:44 435.910
ISS 27 May 01:18:16 01:20:04 14° 15° (NNE) 01:21:53 437.550
Oscar 19 27 May 01:37:25 01:41:27 23° 94° (E) 01:45:27 437.125/150
NANOSAT C BR1 27 May 01:38:29 01:42:16 32° 289° (WNW) 01:46:03 145.865
YUBILEINY 27 May 01:38:30 01:47:13 83° 95° (E) 01:56:01 435.215
50 SAT 27 May 01:38:55 01:41:49 25° 263° (W) 01:44:44 437.505
POLYITAN 1 27 May 01:43:36 01:47:11 26° 291° (WNW) 01:50:44 437.675
SPROUT 27 May 01:46:05 01:48:35 15° 268° (W) 01:51:06 437.525
DUCHIFAT 1 27 May 01:49:06 01:52:42 28° 290° (WNW) 01:56:19 145.980
QB50P2 27 May 01:52:41 01:55:47 20° 293° (WNW) 01:58:53 145.880/145.840
VELOX 1 27 May 01:55:36 01:57:41 13° 269° (W) 01:59:46 145.980
BEESAT 27 May 02:02:26 02:05:32 18° 64° (ENE) 02:08:38 436.000
BUGSAT 1 27 May 02:05:03 02:09:07 58° 286° (WNW) 02:13:13 437.445
Tancredo 1 27 May 02:18:17 02:21:09 35° 31° (NNE) 02:24:01 437.200
UKube-1 27 May 02:19:08 02:22:48 27° 264° (W) 02:26:29 .
DX 1 27 May 02:29:06 02:31:39 15° 267° (W) 02:34:13 434.975-435.025
ISS 27 May 02:53:58 02:57:11 50° 34° (NNE) 03:00:22 437.550
Gurwin Techsat 1B 27 May 02:57:08 03:02:29 80° 104° (ESE) 03:07:48 435.225
ITUPSAT 1 27 May 03:04:52 03:09:36 72° 75° (ENE) 03:14:24 437.325
AO-7 27 May 03:08:55 03:14:21 19° 92° (E) 03:19:46 .
RS-15 27 May 03:09:41 03:21:48 77° 303° (WNW) 03:34:17 29.354- 29.394
Oscar 19 27 May 03:16:05 03:20:54 41° 290° (WNW) 03:25:40 437.125/150
MOZHAYETS 4 27 May 03:16:06 03:20:33 50° 73° (ENE) 03:25:02
PCSat 27 May 03:24:27 03:28:26 20° 46° (NE) 03:32:23 145.827
BEESAT 27 May 03:38:17 03:42:53 50° 260° (W) 03:47:32 436.000
YUBILEINY 27 May 03:38:59 03:45:06 21° 296° (WNW) 03:51:16 435.215
Tancredo 1 27 May 03:54:21 03:56:46 21° 227° (SW) 03:59:09 437.200
CUBESAT XI-V 27 May 04:03:57 04:07:59 29° 69° (ENE) 04:12:03 437.345
O/OREOS (USA 219) 27 May 04:04:58 04:09:32 67° 108° (ESE) 04:14:06 437.305
KKS-1 27 May 04:06:19 04:09:58 26° 68° (ENE) 04:13:38 437.445
ITAMSAT 1 27 May 04:18:23 04:23:34 64° 102° (ESE) 04:28:44 435.822/435.867
ISS 27 May 04:31:15 04:33:23 16° 230° (SW) 04:35:32 437.550
STARS 27 May 04:35:55 04:39:20 23° 67° (ENE) 04:42:45 437.465
Gurwin Techsat 1B 27 May 04:39:11 04:41:42 14° 300° (WNW) 04:44:15 435.225
ITUPSAT 1 27 May 04:46:38 04:47:55 11° 270° (W) 04:49:12 437.325
MOZHAYETS 4 27 May 04:55:21 04:57:58 15° 268° (W) 05:00:38
AO-7 27 May 04:59:36 05:07:59 86° 291° (WNW) 05:16:23 .
AO-85 27 May 05:02:16 05:06:26 71° 303° (WNW) 05:10:26 145.980
PCSat 27 May 05:06:54 05:12:18 65° 245° (WSW) 05:17:38 145.827
RS-15 27 May 05:26:32 05:36:46 29° 331° (NNW) 05:47:05 29.354- 29.394
BEESAT 2 27 May 05:29:35 05:32:48 24° 112° (ESE) 05:36:02 435.950
JUGNU 27 May 05:34:06 05:34:30 10° 183° (S) 05:34:53 437.505
CUBESAT XI-V 27 May 05:41:18 05:45:17 27° 265° (W) 05:49:18 437.345
KKS-1 27 May 05:42:38 05:46:25 27° 263° (W) 05:50:13 437.445
O/OREOS (USA 219) 27 May 05:47:08 05:49:25 14° 307° (NW) 05:51:43 437.305
BEESAT 3 27 May 05:47:30 05:51:26 72° 303° (WNW) 05:55:27 437.485
ITAMSAT 1 27 May 05:59:19 06:02:29 16° 298° (WNW) 06:05:38 435.822/435.867
LilacSat-2 27 May 06:07:24 06:09:27 14° 92° (E) 06:11:27 437.200
STARS 27 May 06:11:39 06:15:29 30° 263° (W) 06:19:22 437.465
DOVE 4 27 May 06:13:44 06:17:29 31° 97° (E) 06:21:18 437.250
SO-50 27 May 06:16:46 06:19:58 19° 44° (NE) 06:23:10 436.795
CUTE-I 27 May 06:18:52 06:22:41 20° 93° (E) 06:26:29 437.470
XW-2D 27 May 06:39:41 06:43:13 33° 97° (E) 06:46:41 145.860 - 145.880
XW-2B 27 May 06:47:33 06:51:13 40° 99° (E) 06:54:49 145.730 - 145.750
AO-7 27 May 06:54:03 06:59:37 20° 308° (NW) 07:05:11 .
NUDT-PHONESAT 27 May 06:56:39 07:00:13 39° 98° (E) 07:03:46 437.300
XW-2F 27 May 06:59:34 07:03:21 56° 100° (E) 07:07:07 145.980 - 146.000
XW-2C 27 May 07:01:07 07:04:57 62° 100° (E) 07:08:45 145.795 - 145.815
KAITUO 1B 27 May 07:06:01 07:09:46 54° 100° (E) 07:13:28 145.475/437.950
BEESAT 2 27 May 07:06:55 07:10:25 29° 310° (NW) 07:13:59 435.950
STRAND 1 27 May 07:18:39 07:23:38 59° 73° (ENE) 07:28:40 437.568
LilacSat-2 27 May 07:40:14 07:43:52 38° 287° (WNW) 07:47:28 437.200
RS-15 27 May 07:46:31 07:55:10 21° 7° (N) 08:03:40 29.354- 29.394
HO-68 27 May 07:47:06 07:53:39 36° 97° (E) 08:00:08 435.675
DOVE 4 27 May 07:51:56 07:55:00 20° 292° (WNW) 07:58:08 437.250
CUTE 1.7 + AOD 2 27 May 07:53:16 07:57:07 32° 96° (E) 08:00:55 437.475
SO-50 27 May 07:56:20 08:00:45 55° 242° (WSW) 08:05:11 436.795
CUTE-I 27 May 07:57:49 08:02:58 50° 289° (WNW) 08:08:07 437.470
SRMSAT 27 May 08:02:53 08:03:40 10° 182° (S) 08:04:27 437.500
AAUSAT CUBESAT 2 27 May 08:04:54 08:06:35 12° 91° (E) 08:08:16 437.432
M-CUBED/EXP-1 PRIME 27 May 08:07:45 08:11:51 50° 69° (ENE) 08:15:41 437.505
XW-2D 27 May 08:14:39 08:17:07 16° 293° (WNW) 08:19:33 145.860 - 145.880
XW-2B 27 May 08:22:59 08:25:01 14° 294° (WNW) 08:27:03 145.730 - 145.750
ZACube-1 27 May 08:24:34 08:26:30 12° 90° (E) 08:28:26 437.345
NUDT-PHONESAT 27 May 08:31:51 08:33:45 14° 294° (WNW) 08:35:39 437.300
NO-84 27 May 08:36:07 08:40:29 71° 134° (SE) 08:44:47 435.350 FM
XW-2F 27 May 08:36:17 08:36:59 10° 296° (WNW) 08:37:40 145.980 - 146.000
CUBEBUG 2 27 May 08:38:13 08:42:44 53° 99° (E) 08:47:20 437.445
SEEDS 27 May 08:40:49 08:45:03 75° 102° (ESE) 08:49:13 437.485
KAITUO 1B 27 May 08:42:33 08:43:16 10° 296° (WNW) 08:43:58 145.475/437.950
UWE-3 27 May 08:47:07 08:51:27 39° 98° (E) 08:55:49 435.000/436.395/437.385
XW-2A 27 May 08:48:39 08:52:01 50° 285° (WNW) 08:55:21 145.665 - 145.685
STRAND 1 27 May 09:00:17 09:03:11 15° 269° (W) 09:06:07 437.568
Oscar 11 27 May 09:16:55 09:20:50 32° 97° (E) 09:24:41 .
TIGRISAT 27 May 09:19:45 09:22:49 20° 66° (ENE) 09:25:56 435.000
FO-29 27 May 09:29:08 09:33:38 31° 67° (ENE) 09:38:17 435.910
CUTE 1.7 + AOD 2 27 May 09:29:34 09:32:43 20° 293° (WNW) 09:35:51 437.475
HO-68 27 May 09:34:42 09:41:23 43° 294° (WNW) 09:48:02 435.675
AAUSAT CUBESAT 2 27 May 09:38:19 09:42:19 49° 286° (WNW) 09:46:17 437.432
PRISM 27 May 09:43:15 09:47:15 51° 73° (ENE) 09:51:15 437.425
AO-73 27 May 09:44:03 09:48:38 85° 105° (ESE) 09:53:12 145.935
M-CUBED/EXP-1 PRIME 27 May 09:44:25 09:46:25 13° 261° (W) 09:48:22 437.505
UNISAT 6 27 May 09:50:31 09:54:36 46° 72° (ENE) 09:58:46 437.425
DELFI C3 27 May 09:50:41 09:53:30 19° 94° (E) 09:56:18 145.870
ZACube-1 27 May 09:58:37 10:03:07 61° 285° (WNW) 10:07:38 437.345
RS-15 27 May 10:01:09 10:12:31 41° 40° (NE) 10:23:22 29.354- 29.394
NO-84 27 May 10:14:58 10:18:27 23° 331° (NNW) 10:21:50 435.350 FM
CUBEBUG 2 27 May 10:16:09 10:18:56 16° 295° (WNW) 10:21:44 437.445
UWE-3 27 May 10:24:14 10:27:37 20° 293° (WNW) 10:31:01 435.000/436.395/437.385
AIST 2D 27 May 10:50:03 10:52:47 22° 70° (ENE) 10:55:33 435.315
Oscar 11 27 May 10:53:25 10:56:45 22° 292° (WNW) 11:00:04 .
TIGRISAT 27 May 10:55:22 10:59:15 34° 263° (W) 11:03:13 435.000
NANOSAT C BR1 27 May 10:55:36 10:57:47 14° 65° (ENE) 10:59:59 145.865
POLYITAN 1 27 May 11:00:17 11:03:05 18° 66° (ENE) 11:05:54 437.675
DUCHIFAT 1 27 May 11:05:24 11:07:57 16° 66° (ENE) 11:10:32 145.980
QB50P2 27 May 11:08:23 11:11:43 23° 68° (ENE) 11:15:04 145.880/145.840
FO-29 27 May 11:14:23 11:18:47 28° 265° (W) 11:23:17 435.910
EO-88 27 May 11:14:58 11:18:33 49° 285° (WNW) 11:22:06 145.990 - 145.960
ESTCUBE 1 27 May 11:17:35 11:19:16 12° 90° (E) 11:20:57 437.505/2401.250
PRISM 27 May 11:21:08 11:22:47 12° 268° (W) 11:24:28 437.425
DELFI C3 27 May 11:24:53 11:28:18 29° 289° (WNW) 11:31:41 145.870
UNISAT 6 27 May 11:29:14 11:31:34 14° 269° (W) 11:33:55 437.425
EO-79 27 May 11:44:19 11:48:24 54° 74° (ENE) 11:52:30 145.935-145.965
YUBILEINY 27 May 11:50:00 11:58:10 40° 73° (ENE) 12:06:17 435.215
LO-87 27 May 11:55:07 11:58:38 58° 101° (E) 12:02:09 145.935 - 145.965
VELOX 1 27 May 12:10:23 12:11:01 10° 90° (E) 12:11:39 145.980
RS-15 27 May 12:13:53 12:25:54 70° 245° (WSW) 12:37:17 29.354- 29.394
AIST 2D 27 May 12:23:15 12:25:55 20° 266° (W) 12:28:35 435.315
NANOSAT C BR1 27 May 12:29:03 12:33:04 48° 261° (W) 12:37:08 145.865
POLYITAN 1 27 May 12:34:41 12:38:33 37° 262° (W) 12:42:29 437.675
O/OREOS (USA 219) 27 May 12:38:38 12:40:27 12° 52° (NE) 12:42:16 437.305
DUCHIFAT 1 27 May 12:39:21 12:43:16 41° 261° (W) 12:47:14 145.980
Gurwin Techsat 1B 27 May 12:40:26 12:43:22 15° 61° (ENE) 12:46:20 435.225
QB50P2 27 May 12:43:47 12:47:22 27° 264° (W) 12:50:59 145.880/145.840
ESTCUBE 1 27 May 12:52:00 12:56:27 60° 286° (WNW) 13:00:51 437.505/2401.250
Oscar 19 27 May 12:53:13 12:57:46 32° 68° (ENE) 13:02:19 437.125/150
BUGSAT 1 27 May 12:53:30 12:57:29 83° 75° (ENE) 13:01:31 437.445
50 SAT 27 May 13:02:45 13:05:08 18° 95° (E) 13:07:32 437.505
EO-79 27 May 13:23:01 13:24:28 12° 269° (W) 13:25:57 145.935-145.965
SPROUT 27 May 13:30:16 13:34:35 87° 280° (W) 13:38:51 437.525
AO-85 27 May 13:33:40 13:37:42 71° 57° (ENE) 13:41:59 145.980
NO-84 27 May 13:35:28 13:36:34 11° 13° (NNE) 13:37:40 435.350 FM
VELOX 1 27 May 13:43:32 13:47:53 66° 286° (WNW) 13:52:13 145.980
YUBILEINY 27 May 13:46:47 13:54:59 45° 272° (W) 14:03:10 435.215
BEESAT 2 27 May 13:48:13 13:50:30 14° 44° (NE) 13:52:46 435.950
ITAMSAT 1 27 May 14:00:25 14:01:59 11° 59° (ENE) 14:03:34 435.822/435.867
BEESAT 3 27 May 14:05:01 14:08:55 47° 55° (NE) 14:12:45 437.485
UKube-1 27 May 14:06:03 14:10:14 49° 100° (E) 14:14:24 .
AO-7 27 May 14:07:05 14:13:38 27° 56° (NE) 14:20:13 .
DX 1 27 May 14:15:45 14:20:06 85° 285° (WNW) 14:24:26 434.975-435.025
O/OREOS (USA 219) 27 May 14:15:54 14:20:24 73° 251° (WSW) 14:24:52 437.305
Gurwin Techsat 1B 27 May 14:17:24 14:22:41 71° 258° (WSW) 14:28:01 435.225
RS-15 27 May 14:30:45 14:35:49 14° 266° (W) 14:40:50 29.354- 29.394
Oscar 19 27 May 14:32:28 14:37:01 30° 264° (W) 14:41:35 437.125/150
50 SAT 27 May 14:35:17 14:37:57 22° 290° (WNW) 14:40:36 437.505
ITUPSAT 1 27 May 15:07:01 15:10:30 20° 94° (E) 15:13:58 437.325
NO-84 27 May 15:11:44 15:15:14 32° 34° (NE) 15:18:26 435.350 FM
MOZHAYETS 4 27 May 15:13:44 15:15:46 13° 90° (E) 15:17:48
BEESAT 2 27 May 15:24:39 15:28:40 63° 241° (WSW) 15:32:38 435.950
ITAMSAT 1 27 May 15:35:28 15:40:38 89° 75° (ENE) 15:45:51 435.822/435.867
BEESAT 27 May 15:39:00 15:43:34 42° 99° (E) 15:48:06 436.000
UKube-1 27 May 15:43:27 15:45:50 15° 296° (WNW) 15:48:13 .
BEESAT 3 27 May 15:43:58 15:46:03 14° 251° (WSW) 15:48:10 437.485
AO-7 27 May 15:57:26 16:05:41 71° 255° (WSW) 16:14:00 .
ITUPSAT 1 27 May 16:43:57 16:48:29 42° 289° (WNW) 16:53:00 437.325
MOZHAYETS 4 27 May 16:48:42 16:53:18 60° 286° (WNW) 16:57:51
NO-84 27 May 16:49:36 16:52:39 26° 234° (SW) 16:55:30 435.350 FM
BEESAT 27 May 17:17:32 17:21:01 20° 295° (WNW) 17:24:29 436.000
DOVE 4 27 May 17:18:21 17:22:21 31° 71° (ENE) 17:26:11 437.250
XW-2D 27 May 17:21:07 17:23:23 15° 67° (ENE) 17:25:40 145.860 - 145.880
XW-2B 27 May 17:28:41 17:31:19 18° 68° (ENE) 17:33:58 145.730 - 145.750
KKS-1 27 May 17:33:25 17:37:47 57° 101° (E) 17:42:09 437.445
NUDT-PHONESAT 27 May 17:35:58 17:38:23 17° 68° (ENE) 17:40:48 437.300
CUBESAT XI-V 27 May 17:37:41 17:42:21 79° 102° (ESE) 17:46:58 437.345
CUTE-I 27 May 17:39:39 17:44:13 30° 67° (ENE) 17:48:47 437.470
XW-2F 27 May 17:39:55 17:42:58 23° 70° (ENE) 17:46:03 145.980 - 146.000
XW-2C 27 May 17:41:45 17:44:56 26° 70° (ENE) 17:48:09 145.795 - 145.815
KAITUO 1B 27 May 17:45:33 17:48:31 22° 69° (ENE) 17:51:30 145.475/437.950
AO-7 27 May 17:57:22 17:59:47 11° 272° (W) 18:02:14 .
STARS 27 May 18:01:01 18:05:16 47° 100° (E) 18:09:30 437.465
PCSat 27 May 18:06:19 18:09:53 18° 105° (ESE) 18:13:28 145.827
HO-68 27 May 18:15:41 18:21:20 26° 60° (ENE) 18:27:00 435.675
LilacSat-2 27 May 18:20:31 18:24:21 86° 77° (ENE) 18:28:14 437.200
CUTE 1.7 + AOD 2 27 May 18:45:20 18:48:37 22° 68° (ENE) 18:51:54 437.475
